TimeCDT,TemperatureF,Dew PointF,Humidity,Sea Level PressureIn,VisibilityMPH,Wind Direction,Wind SpeedMPH,Gust SpeedMPH,PrecipitationIn,Events,Conditions,WindDirDegrees,DateUTC
12:51 AM,43.0,28.9,58,29.91,10.0,North,10.4,-,N/A,,Partly Cloudy,360,2012-11-02 05:51:00
1:51 AM,41.0,30.0,65,29.93,10.0,NNW,12.7,-,N/A,,Partly Cloudy,340,2012-11-02 06:51:00
2:51 AM,39.0,28.9,67,29.95,10.0,North,12.7,-,N/A,,Clear,350,2012-11-02 07:51:00
3:51 AM,37.9,28.0,68,29.96,10.0,North,10.4,-,N/A,,Clear,350,2012-11-02 08:51:00
4:51 AM,37.0,28.0,70,29.97,10.0,North,10.4,-,N/A,,Clear,350,2012-11-02 09:51:00
5:51 AM,35.1,28.0,76,30.00,10.0,NNW,9.2,-,N/A,,Clear,330,2012-11-02 10:51:00
6:51 AM,34.0,28.0,79,30.01,10.0,NNW,10.4,-,N/A,,Partly Cloudy,330,2012-11-02 11:51:00
7:51 AM,34.0,28.0,79,30.04,10.0,NW,8.1,-,N/A,,Partly Cloudy,320,2012-11-02 12:51:00
8:51 AM,36.0,28.0,73,30.06,10.0,NNW,10.4,-,N/A,,Partly Cloudy,340,2012-11-02 13:51:00
9:51 AM,39.0,28.0,65,30.07,10.0,North,9.2,19.6,N/A,,Partly Cloudy,360,2012-11-02 14:51:00
10:51 AM,42.8,28.4,57,30.07,10.0,NNW,8.1,-,N/A,,Partly Cloudy,340,2012-11-02 15:51:00
11:51 AM,45.0,28.9,53,30.09,10.0,Variable,6.9,-,N/A,,Partly Cloudy,0,2012-11-02 16:51:00
12:51 PM,46.0,28.9,51,30.09,10.0,NNW,4.6,-,N/A,,Scattered Clouds,340,2012-11-02 17:51:00
1:51 PM,46.9,28.0,48,30.08,10.0,North,6.9,-,N/A,,Mostly Cloudy,360,2012-11-02 18:51:00
2:51 PM,48.0,28.0,46,30.08,10.0,NE,8.1,-,N/A,,Mostly Cloudy,40,2012-11-02 19:51:00
3:51 PM,46.4,30.2,53,30.07,10.0,ENE,9.2,-,N/A,,Mostly Cloudy,60,2012-11-02 20:51:00
4:51 PM,44.1,30.9,60,30.10,10.0,ENE,10.4,-,N/A,,Overcast,70,2012-11-02 21:51:00
5:51 PM,42.1,30.9,65,30.10,10.0,ENE,10.4,-,N/A,,Mostly Cloudy,60,2012-11-02 22:51:00
6:51 PM,41.0,30.9,67,30.12,10.0,NE,6.9,-,N/A,,Overcast,40,2012-11-02 23:51:00
7:51 PM,41.0,30.9,67,30.13,10.0,NE,5.8,-,N/A,,Overcast,50,2012-11-03 00:51:00
8:51 PM,39.9,30.9,70,30.13,10.0,NE,5.8,-,N/A,,Overcast,50,2012-11-03 01:51:00
9:51 PM,39.9,32.0,73,30.13,10.0,NE,4.6,-,N/A,,Mostly Cloudy,40,2012-11-03 02:51:00
10:33 PM,39.2,32.0,75,30.14,10.0,NNW,3.5,-,N/A,,Mostly Cloudy,330,2012-11-03 03:33:00
10:51 PM,39.9,32.0,73,30.15,10.0,North,3.5,-,N/A,,Mostly Cloudy,360,2012-11-03 03:51:00
11:51 PM,41.0,32.0,70,30.14,10.0,NNE,4.6,-,N/A,,Overcast,20,2012-11-03 04:51:00